TimeEDT,TemperatureF,Dew PointF,Humidity,Sea Level PressureIn,VisibilityMPH,Wind Direction,Wind SpeedMPH,Gust SpeedMPH,PrecipitationIn,Events,Conditions,WindDirDegrees,DateUTC
12:53 AM,77.0,71.1,82,30.17,10.0,South,6.9,-,N/A,,Clear,190,2013-07-05 04:53:00
1:53 AM,77.0,71.1,82,30.16,10.0,SSW,5.8,-,N/A,,Clear,200,2013-07-05 05:53:00
2:53 AM,75.9,71.1,85,30.16,10.0,South,5.8,-,N/A,,Clear,190,2013-07-05 06:53:00
3:53 AM,75.0,71.1,87,30.16,10.0,South,8.1,-,N/A,,Clear,180,2013-07-05 07:53:00
4:53 AM,75.9,71.1,85,30.16,10.0,South,8.1,-,N/A,,Clear,180,2013-07-05 08:53:00
5:53 AM,75.0,71.1,87,30.18,10.0,South,8.1,-,N/A,,Clear,180,2013-07-05 09:53:00
6:53 AM,77.0,71.1,82,30.18,10.0,South,6.9,-,N/A,,Clear,190,2013-07-05 10:53:00
7:53 AM,80.1,72.0,76,30.18,10.0,South,4.6,-,N/A,,Clear,180,2013-07-05 11:53:00
8:53 AM,82.9,72.0,69,30.18,10.0,WSW,5.8,-,N/A,,Clear,250,2013-07-05 12:53:00
9:53 AM,86.0,73.0,65,30.16,10.0,WSW,4.6,-,N/A,,Partly Cloudy,240,2013-07-05 13:53:00
10:53 AM,87.1,72.0,61,30.16,10.0,WSW,5.8,-,N/A,,Clear,250,2013-07-05 14:53:00
11:53 AM,89.1,71.1,55,30.15,10.0,WSW,6.9,-,N/A,,Clear,240,2013-07-05 15:53:00
12:53 PM,90.0,71.1,54,30.13,10.0,SW,9.2,-,N/A,,Partly Cloudy,220,2013-07-05 16:53:00
1:53 PM,91.9,70.0,48,30.12,10.0,SW,8.1,-,N/A,,Clear,230,2013-07-05 17:53:00
2:53 PM,91.0,70.0,50,30.11,10.0,SW,10.4,-,N/A,,Partly Cloudy,220,2013-07-05 18:53:00
3:53 PM,90.0,73.9,59,30.08,10.0,South,11.5,18.4,N/A,,Mostly Cloudy,190,2013-07-05 19:53:00
4:53 PM,91.0,73.0,55,30.07,10.0,SSW,10.4,16.1,N/A,,Partly Cloudy,200,2013-07-05 20:53:00
5:53 PM,90.0,70.0,52,30.06,10.0,SW,10.4,16.1,N/A,,Scattered Clouds,220,2013-07-05 21:53:00
6:53 PM,88.0,73.0,61,30.06,10.0,South,9.2,17.3,N/A,,Clear,190,2013-07-05 22:53:00
7:53 PM,84.9,73.9,69,30.06,10.0,South,8.1,-,N/A,,Clear,180,2013-07-05 23:53:00
8:53 PM,82.0,73.0,74,30.07,10.0,South,6.9,-,N/A,,Clear,180,2013-07-06 00:53:00
9:53 PM,81.0,72.0,74,30.09,10.0,South,5.8,-,N/A,,Clear,190,2013-07-06 01:53:00
10:53 PM,79.0,72.0,79,30.09,10.0,South,5.8,-,N/A,,Clear,180,2013-07-06 02:53:00
11:53 PM,78.1,72.0,81,30.09,10.0,SSE,3.5,-,N/A,,Clear,150,2013-07-06 03:53:00